Location: Unspecified
(0.0000°N, 0.0000°E)
Time: 15:05:26
(UTC+00:00)

Envisat - Pass Details

Date: 17 April 2021
Orbit: 764 x 766 km, 98.1° (Epoch: 16 April)

Event Time Altitude Azimuth Distance (km) Brightness Sun altitude
Rises 04:00:06 0° 51° (NE) 3,217 7.1 -29.3°
Reaches altitude 10° 04:04:00 10° 81° (E) 2,296 6.4 -28.4°
Maximum altitude 04:05:50 12° 103° (ESE) 2,166 6.1 -27.9°
Drops below altitude 10° 04:07:40 10° 124° (SE) 2,300 6.0 -27.5°
Sets 04:11:33 0° 155° (SSE) 3,230 6.4 -26.5°
